Location: Siracusa
(37.0670°N, 15.3000°E)
Time: 14:28:30
(UTC+01:00)

ISS - Visible Passes

Search period start: 24 January 2019 00:00
Search period end: 03 February 2019 00:00
Orbit: 404 x 410 km, 51.6° (Epoch: 24 January)

Date Brightness Start Highest point End Pass type
(mag) Time Alt. Az. Time Alt. Az. Time Alt. Az.
24 Jan -3.8 17:45:16 10° SW 17:48:33 88° SSE 17:51:52 10° NE visible
24 Jan -1.0 19:23:33 10° WNW 19:24:47 14° NW 19:24:47 14° NW visible
25 Jan -1.7 18:31:18 10° W 18:33:55 21° NNW 18:35:41 15° NNE visible
26 Jan -2.5 17:39:20 10° WSW 17:42:23 35° NW 17:45:27 10° NNE visible
27 Jan -1.2 18:26:30 10° NW 18:28:00 12° NNW 18:29:30 10° N visible
